Location: Sternwarte Stuttgart
(48.7670°N, 9.1830°E)
Time: 14:19:25
(UTC+01:00)

Daily predictions for brighter satellites

Satellite Brightness Start Highest point End
(mag) Time Altitude Azimuth Time Altitude Azimuth Time Altitude Azimuth
COSMOS 2455 3.1 17:08:54 10° SSW 17:14:43 54° ESE 17:20:35 10° NE
Cosmos 44 Rocket 4.1 17:12:12 10° NNW 17:16:31 31° NE 17:20:54 10° E
Meteor 2-10 Rocket 3.7 17:14:44 10° SSW 17:20:01 84° WNW 17:25:35 10° N
Cosmos 2233 Rocket 4.3 17:14:23 10° SSE 17:20:17 46° E 17:26:09 10° NNE
Cosmos 304 Rocket 3.7 17:17:20 10° NNW 17:22:11 75° ENE 17:26:58 10° SSE
Cosmos 1814 Rocket 4.1 17:18:15 10° NNW 17:23:40 86° ENE 17:29:02 10° SSE
Okean 2 Rocket 4.4 17:21:08 10° NNE 17:24:25 19° ENE 17:27:40 10° ESE
IRAS Rocket 4.3 17:19:47 10° SSE 17:25:20 89° WSW 17:30:53 10° NNW
NOSS 3-2 (C) 4.2 17:19:51 10° WSW 17:25:50 50° NW 17:32:32 10° NE
Lacrosse 5 2.6 17:22:05 10° W 17:26:55 43° NNW 17:31:40 11° NE
Cosmos 2082 Rocket 2.5 17:23:08 10° NNW 17:28:36 44° NE 17:34:00 10° SE
CSL-04 Rocket 3.6 17:23:59 10° SSE 17:29:17 80° ENE 17:34:41 10° NNW
BREEZE-M DEB (TANK) 1.4 17:28:27 10° W 17:30:28 87° N 17:32:53 11° E
Cosmos 1346 4.1 17:28:51 10° SW 17:30:56 32° WNW 17:33:02 10° N
Cosmos 540 Rocket 3.9 17:26:12 10° NNW 17:31:06 40° ENE 17:35:58 10° SE
SL-23 DEB 4.1 17:28:04 10° WNW 17:31:32 61° N 17:36:33 11° E
Meteor 1-28 Rocket 4.0 17:28:37 10° NNE 17:31:56 30° E 17:35:14 10° SSE
USA 161 2.0 17:30:10 10° N 17:32:00 38° WNW 17:33:56 10° SSW
Cosmos 1908 Rocket 3.7 17:29:41 10° N 17:33:56 50° ENE 17:38:09 10° SSE
Cosmos 1733 Rocket 3.4 17:30:04 10° NNW 17:34:31 73° W 17:38:56 10° S
Meteor 1-20 Rocket 4.3 17:30:07 10° N 17:35:37 55° ENE 17:41:00 10° SSE
Meteor 1-25 Rocket 4.3 17:32:01 10° N 17:37:51 64° ENE 17:43:36 10° SSE
Ariane Rocket 3.0 17:36:42 10° SSE 17:41:48 90° NE 17:46:55 10° NNW
Cosmos 1606 3.6 17:38:44 10° SSE 17:41:55 26° E 17:44:55 11° NE
Cosmos 44 3.5 17:37:33 10° NNW 17:42:00 46° NE 17:46:39 10° ESE
Cosmos 841 Rocket 3.5 17:37:43 10° NNW 17:43:02 86° ENE 17:48:19 10° SSE
Cosmos 1933 4.1 17:41:58 10° SSW 17:45:55 54° WNW 17:49:53 10° N
CENTAUR R/B 2.8 17:39:46 10° SW 17:45:59 75° NW 17:53:11 10° NE
Cosmos 405 4.4 17:43:29 10° NNE 17:46:11 19° ENE 17:47:39 16° E
CZ-4 R/B 1.2 17:43:11 10° SSE 17:47:01 69° ENE 17:50:51 10° N
Cosmos 1484 Rocket 2.8 17:44:02 10° SSE 17:47:55 84° WSW 17:51:54 10° NNW
EO 1 Del DPAF 4.5 17:47:13 17° ENE 17:48:47 22° E 17:51:48 10° SSE
CZ-4C R/B 3.1 17:42:15 10° NW 17:48:48 48° NE 17:56:13 10° ESE
Cosmos 1862 Rocket 3.7 17:46:16 10° SSW 17:50:42 80° W 17:55:13 10° N
Cosmos 2242 Rocket 4.2 17:48:03 10° SSW 17:52:33 60° WNW 17:57:03 10° N
Sich 1 Rocket 3.5 17:49:54 10° N 17:54:20 68° ENE 17:58:46 10° SSE
SL-27 R/B 2.2 17:51:01 10° NNW 17:54:23 88° ENE 17:57:44 10° SSE
Cosmos 1844 Rocket 3.5 17:52:07 10° SW 17:57:36 50° NW 18:03:05 10° NNE
Cosmos 1725 Rocket 4.4 17:51:38 10° SSW 17:57:52 66° WNW 18:04:07 10° N
Cosmos 1486 Rocket 4.0 17:54:19 10° S 17:59:28 65° ESE 18:04:41 10° NNE
Cosmos 1340 4.2 17:56:10 10° SW 17:59:41 37° WNW 18:03:14 10° N
COSMOS 2487 4.0 17:57:10 10° N 17:59:07 19° NE 17:59:07 19° NE
ALOS 2.7 17:56:19 10° SE 18:00:36 37° ENE 18:04:55 10° N
Okean 1-7 3.5 17:58:27 10° SSE 18:02:32 39° E 18:06:27 11° NNE
Cosmos 1602 4.3 18:01:19 10° N 18:04:49 33° ENE 18:08:19 10° SE
MONITOR-E 4.3 18:04:53 10° SSE 18:07:48 45° ENE 18:10:46 10° N
SMAP 3.7 18:03:38 10° S 18:08:12 58° W 18:12:49 10° NNW
ERS-2 2.0 18:06:10 10° SSE 18:09:50 71° ENE 18:13:31 10° N
Cosmos 1782 2.8 18:09:21 10° S 18:13:18 59° E 18:16:48 13° NNE
FENGYUN 3A 3.8 18:08:39 10° SE 18:13:51 51° ENE 18:19:05 10° N
Nadezhda 4 Rocket 4.3 18:08:46 10° N 18:14:29 39° ENE 18:20:08 10° SE
Cosmos 405 Rocket 3.6 18:12:52 10° SSE 18:15:34 28° ESE 18:15:34 28° ESE
Meteor 1-10 Rocket 4.4 18:11:17 10° S 18:16:48 53° E 18:22:26 10° NNE
Cosmos 1354 Rocket 4.2 18:12:22 10° S 18:17:26 49° ESE 18:20:41 21° NE
Cosmos 1782 Rocket 3.4 18:14:16 10° N 18:18:38 85° E 18:23:00 10° S
USA 116 3.9 18:16:36 10° NNE 18:21:12 90° WNW 18:25:14 10° SSW
Cosmos 1833 Rocket 2.8 18:17:23 10° NNW 18:23:03 81° WSW 18:28:40 10° SSE
SPOT 3 Rocket 3.5 18:17:59 10° SSE 18:23:10 70° ENE 18:28:23 10° N
COSMO-SKYMED 1 2.6 18:21:39 17° NNE 18:24:51 58° E 18:29:07 10° S
Cosmos 2034 Rocket 4.2 18:18:56 10° SSE 18:24:58 47° E 18:30:59 10° NNE
Timation 2 Rocket 4.2 18:18:40 10° NNW 18:25:24 55° NE 18:30:48 15° SE
Cosmos 1633 3.0 18:23:36 10° NNW 18:27:15 64° W 18:30:53 10° S
Meteor 2-20 4.4 18:21:48 10° N 18:27:49 58° ENE 18:33:47 10° SSE
YAOGAN 1 3.0 18:24:07 10° S 18:28:25 62° W 18:32:43 10° NNW
Cosmos 1092 Rocket 4.4 18:26:34 10° N 18:32:14 37° ENE 18:35:34 22° ESE
Cosmos 2297 3.7 18:27:18 10° S 18:32:54 60° ESE 18:35:55 28° NE
ATLAS 3B R/B 4.2 18:29:27 10° WNW 18:34:59 24° N 18:38:35 16° NNE
Cosmos 2278 Rocket 2.6 18:31:04 10° SW 18:36:42 63° WNW 18:41:30 15° NNE
Meteor 1-11 Rocket 3.7 18:37:06 10° N 18:43:00 72° ENE 18:48:45 10° SSE
NOAA 12 4.1 18:42:37 10° SSE 18:47:57 85° WSW 18:53:17 10° NNW
BREEZE-M DEB (TANK) 3.8 18:46:34 10° SW 18:47:45 26° SSW 18:47:45 26° SSW
Cosmos 2221 Rocket 3.6 18:44:30 10° SSW 18:48:54 80° W 18:52:08 18° N
Cosmos 2151 Rocket 3.5 18:45:20 10° N 18:49:21 59° NE 18:49:21 59° NE
Cosmos 1703 Rocket 4.4 18:46:11 10° SSW 18:50:33 51° WNW 18:54:54 10° N
USA 234 3.6 18:49:13 37° E 18:51:02 45° SE 18:57:14 10° SSW
Cosmos 1464 Rocket 3.9 18:46:23 10° S 18:52:32 86° W 18:58:45 10° N
BREEZE-M DEB (TANK) 3.1 18:51:17 10° W 18:53:28 69° WNW 18:53:28 69° WNW
Cosmos 44 Rocket 3.9 18:53:33 10° NW 18:58:19 55° WSW 19:02:08 16° SSE
COSMOS 2455 4.0 18:55:20 10° WSW 19:00:54 38° NW 19:04:50 18° NNE
Okean 2 Rocket 3.8 18:58:25 10° NNW 19:02:51 54° W 19:07:15 10° S
Cosmos 292 Rocket 4.5 19:01:04 10° NNW 19:05:42 52° WSW 19:10:18 10° S
Lacrosse 5 2.9 19:06:17 10° WNW 19:10:51 32° N 19:10:51 32° N
Meteor 2-20 Rocket 4.3 19:05:32 10° N 19:11:40 88° W 19:17:45 10° S
Cosmos 2082 Rocket 3.7 19:07:27 10° NW 19:12:36 36° WSW 19:17:42 10° S
SKYMED 2 4.5 19:10:14 21° N 19:12:53 48° WNW 19:17:03 10° SW
Cosmos 968 Rocket 3.9 19:15:33 10° SSW 19:19:19 48° S 19:19:19 48° S
BREEZE-M DEB (TANK) 3.5 19:22:13 10° W 19:23:49 38° W 19:23:49 38° W
CZ-4C R/B 3.3 19:30:46 10° NW 19:37:43 60° WSW 19:42:10 27° SSE
CENTAUR R/B 4.0 19:32:04 10° W 19:37:54 31° NNW 19:40:24 25° NNE
ALOS 4.1 19:34:03 10° SSW 19:38:07 29° W 19:42:12 10° NNW
ATLAS 3B R/B 4.3 20:22:14 10° NW 20:25:50 23° N 20:25:50 23° N
USA 234 4.2 20:36:35 43° W 20:36:35 43° W 20:40:48 10° WSW
